sat.trackr.live / text

‹ back to catalog

STARLINK-37205

NORAD 68332 · 2026-059M

PAYLOAD ACTIVE UNKNOWN

§ Identity

Operator
Country
US
Launch date
2026-03-22
Launch site
AFETR
Launch vehicle
Mass (kg)
RCS (m²)

Purposes: comms

External: N2YO · Heavens-Above · Gunter

§ Orbital elements

Epoch: 2026-09-19T22:24:27.803232Z

Period
93.85 min
Inclination
53.1574°
Eccentricity
0.0000395
Mean motion
15.34406251 rev/d
Perigee alt
462.4 km
Apogee alt
463.0 km
Semi-major
6,840.8 km
B*
7.7318e-4
RAAN
164.0171°
Arg perigee
141.7722°
Mean anomaly
218.3309°
Rev number
2,794

§ Raw data

STARLINK-372051 68332U 26059M   26262.93365513  .00025842  00000+0  77318-3 0  99962 68332  53.1574 164.0171 0000395 141.7722 218.3309 15.34406251 27949

JSON: /api/v1/satellites/68332 · /tle

For live sub-satellite position, see the globe view (requires WebGL).

§ Visibility from observer

Set your observer location to see the next 7 days of passes ≥ 10°. The values pass through the URL so the page stays shareable.

No JS? Fill the form by hand. The geolocation button needs JavaScript.